Torna al catalogo

ATLAS CENTAUR R/B

AttivoUNKNOWN
NORAD 13007·ROCKET BODY·🇺🇸 United States

Lanciato Dec 15, 1981 da Cape Canaveral Space Force Station

Loading…

Prossimi Passaggi (prossime 24 ore)

TLE

AggiornatoSource: Space-Track

Epoca: Sep 14, 2026, 06:00 UTC

1 13007U 81119B   26257.25043743  .00018988 -20193-5  67083-3 0  9993
2 13007  23.5143 217.0182 2467641 114.4506 273.2103 10.44760266198847

Traccia ATLAS CENTAUR R/B in tempo reale con AllMySat

Download on the App Store